Regional Weather Roundup
Issued by NWS Little Rock, AR

Home | Current Version | Previous Version | Graphics & Text | Print | Product List | Glossary On
Versions: 1 2 3 4 5 6 7 8 9 10 11 12 13 14 15 16 17 18 19 20 21 22 23 24 25 26 27 28 29 30 31 32 33 34 35 36 37 38 39 40 41 42 43 44 45 46 47 48 49 50
000
ASUS44 KLZK 232205
RWRLZK

WEATHER ROUNDUP FOR ARKANSAS
NATIONAL WEATHER SERVICE LITTLE ROCK AR
500 PM CDT WED JUL 23 2014

NOTE: "FAIR" INDICATES FEW OR NO CLOUDS BELOW 12,000 FEET WITH NO
SIGNIFICANT WEATHER AND/OR OBSTRUCTIONS TO VISIBILITY.

ARZ001-003-010-029-232300-
NORTHWEST ARKANSAS

CITY           SKY/WX    TMP DP  RH WIND       PRES   REMARKS
FAYETTEVILLE   CLOUDY    81  64  56 CALM      30.06F
FORT SMITH     RAIN      74  70  87 S8        30.06F
HARRISON       TSTM      71  70  96 SW9       30.10R VSB 1/2
BENTONVILLE    PTSUNNY   82  66  57 N8        30.06F HX  85
ROGERS         MOSUNNY   83  68  60 N13G20    30.07S HX  86
SILOAM SPGS    PTSUNNY   81  64  57 N10       30.06F
HIGHFILL       PTSUNNY   84  66  54 N15       30.04F HX  86
SPRINGDALE     PTSUNNY   86  63  45 NW16      30.08S HX  87
$$

ARZ004-005-016-232300-
NORTH CENTRAL ARKANSAS

CITY           SKY/WX    TMP DP  RH WIND       PRES   REMARKS
BATESVILLE       N/A     70 N/A N/A SW5       30.04
FLIPPIN        CLOUDY    72  68  88 SE7G16    30.11R
MTN HOME       CLOUDY    71  69  93 S13       30.09R
$$

ARZ040-041-232300-
WEST CENTRAL ARKANSAS

CITY           SKY/WX    TMP DP  RH WIND       PRES   REMARKS
MENA             N/A    N/A N/A N/A SE6       30.20R THUNDER
MOUNT IDA      HVY RAIN  71  69  93 N8G23     30.11R FOG
$$

ARZ009-017-025-026-028-232300-
NORTHEAST ARKANSAS

CITY           SKY/WX    TMP DP  RH WIND       PRES   REMARKS
CORNING          N/A     73  68  83 SW6       29.99F
JONESBORO      CLOUDY    72  66  81 S5        29.95F
NEWPORT        LGT RAIN  70  69  96 SE13G28   29.98F
WALNUT RIDGE   CLOUDY    72  64  78 W5        29.99R
BLYTHEVILLE    CLOUDY    74  66  76 VRB7      29.93F
$$

ARZ022-023-033-042-044-232300-
CENTRAL ARKANSAS

CITY           SKY/WX    TMP DP  RH WIND       PRES   REMARKS
LITTLE ROCK    TSTM      82  73  74 NW24G31   29.99R HX  88
N LITTLE ROCK  CLOUDY    74  72  93 W10G24    29.99R
JACKSONVILLE   TSTM      77  72  83 NW18G39   30.05R
HOT SPRINGS    TSTM      74  70  87 N14G26    30.06R
RUSSELLVILLE   LGT RAIN  73  70  90 NW9       30.12R
CLINTON        FAIR      72  72 100 E9        30.11R
$$

ARZ036-232300-
EAST ARKANSAS

CITY           SKY/WX    TMP DP  RH WIND       PRES   REMARKS
WEST MEMPHIS   CLOUDY    79  69  71 E10       30.02R
$$

ARZ050-053-066-070-073-232300-
SOUTHWEST ARKANSAS

CITY           SKY/WX    TMP DP  RH WIND       PRES   REMARKS
ARKADELPHIA    FAIR      84  78  82 SW3       29.98R HX  94
CAMDEN         PTSUNNY   86  73  66 NW3       29.97R HX  93
TEXARKANA      CLOUDY    87  74  64 NW7       30.04R HX  95
EL DORADO      MOSUNNY   87  72  60 SW5       29.98S HX  93
$$

ARZ056-057-069-232300-
SOUTHEAST ARKANSAS

CITY           SKY/WX    TMP DP  RH WIND       PRES   REMARKS
PINE BLUFF     CLOUDY    88  73  61 S9        29.95F HX  95
STUTTGART      CLOUDY    88  73  62 S10       29.96S HX  96
MONTICELLO     MOSUNNY   89  72  56 SW5       29.96S HX  96

$$




USA.gov is the U.S. government's official web portal to all federal, state and local government web resources and services.